National Weather Service United States Department of Commerce


000
ASUS42 KCAE 060210
RWRCAE
REGIONAL WEATHER ROUNDUP
NATIONAL WEATHER SERVICE COLUMBIA SC
1000 PM EDT THU AUG 05 2021

NOTE: "FAIR" INDICATES FEW OR NO CLOUDS BELOW 12,000 FEET WITH NO
SIGNIFICANT WEATHER AND/OR OBSTRUCTIONS TO VISIBILITY.

NOT ALL STATIONS ARE QUALITY CONTROLLED BY THE NATIONAL
WEATHER SERVICE. USE DATA WITH CAUTION...ESPECIALLY
DEWPOINT OBSERVATIONS.

SCZ001>059-115-116-135>137-GAZ040-063>065-077-060300-
...UPSTATE SOUTH CAROLINA...

CITY SKY/WX TMP DP RH WIND PRES REMARKS
ANDERSON CLEAR 74 65 73 NE5 30.15R
LIBERTY PTCLDY 70 67 89 E3 30.16R
SPARTANBURG CLEAR 70 64 83 CALM 30.16R
CLEMSON PTCLDY 75 66 73 E3 30.16R
GREENVILLE CLEAR 78 63 59 E3 30.17R
GREENWOOD PTCLDY 70 66 87 CALM 30.15R
GREER CLEAR 69 63 81 CALM 30.17R
ROCK HILL CLEAR 70 63 78 CALM 30.15R
LAURENS CLEAR 68 66 94 CALM 30.15R


...CENTRAL SOUTH CAROLINA...

CITY SKY/WX TMP DP RH WIND PRES REMARKS
COLUMBIA APT CLEAR 77 68 73 E3 30.12R
COLUMBIA OWENS CLEAR 75 69 81 CALM 30.13R
MCENTIRE ANGB PTCLDY 71 71 100 CALM 30.11R
ORANGEBURG CLOUDY 75 71 87 SE3 30.13R
SUMTER SHAW PTCLDY 73 69 87 CALM 30.12R
AIKEN FAIR 74 68 80 SE3 30.14R
BARNWELL CLOUDY 75 70 83 E3 30.12R
MANNING CLOUDY 73 70 88 CALM 30.13R
CAMDEN FAIR 73 68 83 CALM 30.14R
LANCASTER MOCLDY 73 66 78 CALM 30.14R
WINNSBORO CLEAR 73 64 73 E5 30.14R


...EASTERN AND COASTAL SOUTH CAROLINA...

CITY SKY/WX TMP DP RH WIND PRES REMARKS
MYRTLE BEACH MOCLDY 78 70 76 CALM 30.13R
N MYRTLE BCH MOCLDY 75 73 93 CALM 30.12R
CONWAY FAIR 72 72 100 CALM 30.13R
MARION FAIR 70 70 100 CALM 30.13R
HARTSVILLE FAIR 72 68 88 CALM 30.14R
FLORENCE PTCLDY 76 69 79 CALM 30.13R
DARLINGTON CLEAR 71 71 100 CALM 30.14R
CHARLESTON APT CLOUDY 74 71 91 CALM 30.12R
MOUNT PLEASANT CLOUDY 73 73 100 CALM 30.11
WALTERBORO CLOUDY 72 70 94 E3 30.12S
BEAUFORT CLOUDY 75 69 81 NE6 30.11R
HILTON HEAD CLOUDY 75 70 83 NE9 30.11R


...EASTERN GEORGIA...

CITY SKY/WX TMP DP RH WIND PRES REMARKS
AUGUSTA BUSH F PTCLDY 75 70 84 SE5 30.11R
AUGUSTA DANIEL PTCLDY 78 69 73 S6 30.13R
THOMSON PTCLDY 78 68 71 SE5 30.13R
WASHINGTON FAIR 73 67 82 NE3 30.13R
CLAXTON CLOUDY 75 72 88 SE3 30.11R
SYLVANIA MOCLDY 73 69 87 E3 30.12R
STATESBORO MOCLDY 73 67 82 CALM 30.11R
SAVANNAH CLOUDY 73 69 87 NE6 30.10R


...SOUTHERN NORTH CAROLINA...

CITY SKY/WX TMP DP RH WIND PRES REMARKS
CHARLOTTE CLEAR 80 58 46 E8 30.15R
MONROE CLEAR 70 62 76 CALM 30.14R
WADESBORO CLEAR 70 64 82 CALM 30.14R
ROCKINGHAM CLEAR 75 63 67 CALM 30.14R
ASHEVILLE MOCLDY 68 59 73 CALM 30.23R

$$